Location: Unspecified
(51.0950°N, 12.9690°E)
Time: 20:57:33
(UTC+00:00)

SWARM A - Pass Details

Date: 28 October 2021
Orbit: 424 x 429 km, 87.4° (Epoch: 01 December)

Event Time Altitude Azimuth Distance (km) Brightness Sun altitude
Rises 17:08:57 0° 172° (S) 2,394 8.0 -13.0°
Reaches altitude 10° 17:10:59 10° 168° (SSE) 1,532 6.9 -13.3°
Maximum altitude 17:14:15 58° 89° (E) 511 4.2 -13.8°
Drops below altitude 10° 17:17:33 10° 10° (N) 1,547 6.9 -14.4°
Sets 17:19:37 0° 6° (N) 2,419 7.9 -14.7°
